TimeMST,TemperatureF,Dew PointF,Humidity,Sea Level PressureIn,VisibilityMPH,Wind Direction,Wind SpeedMPH,Gust SpeedMPH,PrecipitationIn,Events,Conditions,WindDirDegrees,DateUTC
12:58 AM,57.6,24.8,28,29.86,10.0,SE,8.1,-,N/A,,Clear,140,2013-03-18 07:58:00
1:58 AM,56.1,24.6,30,29.87,10.0,SE,8.1,-,N/A,,Clear,140,2013-03-18 08:58:00
2:58 AM,55.6,26.4,33,29.86,10.0,SE,8.1,-,N/A,,Clear,130,2013-03-18 09:58:00
3:58 AM,55.4,27.5,34,29.85,10.0,East,2.3,-,N/A,,Clear,80,2013-03-18 10:58:00
4:58 AM,54.7,27.9,36,29.87,10.0,SE,6.9,-,N/A,,Clear,140,2013-03-18 11:58:00
5:58 AM,54.0,28.4,37,29.89,10.0,SE,8.1,-,N/A,,Clear,130,2013-03-18 12:58:00
6:58 AM,52.2,28.0,39,29.93,10.0,East,2.3,-,N/A,,Clear,80,2013-03-18 13:58:00
7:58 AM,59.5,30.7,34,29.94,10.0,ESE,10.4,-,N/A,,Clear,120,2013-03-18 14:58:00
8:58 AM,65.5,31.3,28,29.94,10.0,Variable,5.8,-,N/A,,Clear,0,2013-03-18 15:58:00
9:58 AM,70.5,30.9,23,29.95,10.0,East,5.8,-,N/A,,Clear,100,2013-03-18 16:58:00
10:58 AM,72.9,28.2,19,29.94,10.0,North,1.2,-,N/A,,Clear,10,2013-03-18 17:58:00
11:58 AM,74.7,25.7,16,29.93,10.0,Variable,2.3,-,N/A,,Clear,0,2013-03-18 18:58:00
12:58 PM,76.8,21.0,12,29.90,10.0,West,8.1,-,N/A,,Clear,280,2013-03-18 19:58:00
1:58 PM,78.3,18.9,11,29.88,10.0,Variable,2.3,-,N/A,,Clear,0,2013-03-18 20:58:00
2:58 PM,78.8,17.6,10,29.85,10.0,Variable,3.5,-,N/A,,Clear,0,2013-03-18 21:58:00
5:58 PM,78.8,17.6,10,29.84,10.0,NW,8.1,-,N/A,,Clear,310,2013-03-19 00:58:00
6:58 PM,71.6,23.0,16,29.87,10.0,NNW,6.9,-,N/A,,Clear,330,2013-03-19 01:58:00
7:18 PM,71.6,23.0,16,29.94,10.0,NW,6.9,-,N/A,,Clear,320,2013-03-19 02:18:00
7:58 PM,70.5,24.1,17,29.87,10.0,NW,5.8,-,N/A,,Clear,320,2013-03-19 02:58:00
8:58 PM,68.5,25.2,20,29.89,10.0,WNW,3.5,-,N/A,,Clear,290,2013-03-19 03:58:00
9:58 PM,61.9,24.1,24,29.91,10.0,SSW,8.1,-,N/A,,Clear,210,2013-03-19 04:58:00
10:58 PM,61.5,23.7,24,29.91,10.0,South,6.9,-,N/A,,Clear,190,2013-03-19 05:58:00
11:58 PM,60.1,24.4,26,29.90,10.0,South,5.8,-,N/A,,Clear,180,2013-03-19 06:58:00